Location: Brad
(46.1333°N, 22.7833°E)
Time: 11:52:11
(UTC+00:00)

Cosmos 1328 - Pass Details

Date: 03 February 2023
Orbit: 518 x 544 km, 82.5° (Epoch: 21 March)

Event Time Altitude Azimuth Distance (km) Brightness Sun altitude
Rises 16:08:56 0° 180° (S) 2,700 7.6 -6.1°
Reaches altitude 10° 16:11:05 10° 177° (S) 1,810 6.6 -6.5°
Maximum altitude 16:15:02 64° 96° (E) 606 3.8 -7.1°
Drops below altitude 10° 16:18:58 10° 15° (NNE) 1,810 6.2 -7.8°
Sets 16:21:08 0° 12° (NNE) 2,702 7.1 -8.2°
